This is the latest recevied weather packets stored in our database for station/object AA1FF. If no packets are shown the sender has not sent any weather packets the latest 10 day(s).
| Time | Temp. | Humidity | Pressure | Rain* | Wind** | Luminosity | Snow |
|---|---|---|---|---|---|---|---|
| 1777835624 | 10.56° C | 42% | 1007 hPa | 0 mm | - | 271 W/m² | - |
| 1777835324 | 11.11° C | 42% | 1007 hPa | 0 mm | - | 368 W/m² | - |
| 1777835023 | 10.56° C | 41% | 1007 hPa | 0 mm | - | 389 W/m² | - |
| 1777834723 | 11.11° C | 44% | 1007 hPa | 0 mm | - | 271 W/m² | - |
| 1777834424 | 11.11° C | 41% | 1007 hPa | 0 mm | - | 211 W/m² | - |
| 1777834124 | 11.11° C | 40% | 1007 hPa | 0 mm | - | 231 W/m² | - |
| 1777833824 | 11.11° C | 40% | 1007 hPa | 0 mm | - | 207 W/m² | - |
| 1777833524 | 11.11° C | 40% | 1007 hPa | 0 mm | - | 286 W/m² | - |
| 1777833225 | 10.56° C | 41% | 1007 hPa | 0 mm | - | 416 W/m² | - |
| 1777832925 | 10.56° C | 41% | 1007 hPa | 0 mm | - | 380 W/m² | - |
| 1777832623 | 10.56° C | 42% | 1007 hPa | 0 mm | - | 249 W/m² | - |
| 1777832323 | 10.56° C | 41% | 1007 hPa | 0 mm | - | 176 W/m² | - |
| 1777832025 | 10.56° C | 40% | 1007 hPa | 0 mm | - | 207 W/m² | - |
| 1777831723 | 10.56° C | 41% | 1007 hPa | 0 mm | - | 328 W/m² | - |
| 1777831423 | 11.11° C | 43% | 1007 hPa | 0 mm | - | 291 W/m² | - |
| 1777831123 | 11.11° C | 41% | 1007 hPa | 0 mm | - | 251 W/m² | - |
| 1777830824 | 10.56° C | 43% | 1007 hPa | 0 mm | - | 339 W/m² | - |
| 1777830523 | 10.56° C | 42% | 1007 hPa | 0 mm | - | 400 W/m² | - |
| 1777830223 | 10.56° C | 42% | 1007 hPa | 0 mm | - | 389 W/m² | - |
| 1777829923 | 10.56° C | 43% | 1007 hPa | 0 mm | - | 366 W/m² | - |
| 1777829624 | 11.11° C | 44% | 1007 hPa | 0 mm | - | 344 W/m² | - |
| 1777829324 | 11.11° C | 44% | 1007 hPa | 0 mm | - | 336 W/m² | - |
| 1777829025 | 11.11° C | 42% | 1007 hPa | 0 mm | - | 374 W/m² | - |
| 1777828724 | 11.11° C | 43% | 1007 hPa | 0 mm | - | 648 W/m² | - |
| 1777828423 | 10.56° C | 43% | 1007 hPa | 0 mm | - | 454 W/m² | - |
* Rain latest hour (hover to see other rain measurements)
** Current wind speed in m/s (hover to see current wind gust speed)